Voltar ao catálogo

FENGYUN 1C DEB

AtivoLEO
NORAD 31493·DEBRIS·🇨🇳 China

Lançado May 10, 1999 de Taiyuan Satellite Launch Center

Loading…

Próximas Passagens (próximas 24 horas)

TLE

AtualizadoSource: Space-Track

Época: Sep 14, 2026, 02:54 UTC

1 31493U 99025BWG 26257.12101943  .00000412  00000-0  33464-3 0  9998
2 31493 100.1563 234.4345 0116435 170.4504 189.8905 13.93559666637014

Acompanhe FENGYUN 1C DEB em tempo real com AllMySat

Download on the App Store